Wind_Speed
8 9 10 10 12 13 14 17 18 20 21 22 23 24 25 26 28 30 32 34 36 39 41 43 43 43 43 43 43 43 43 42 42 42 43 44 44 44 45 45 44 44 44 45
8 10 11 11 12 14 15 17 19 21 23 24 24 25 26 27 29 31 33 35 38 41 43 43 43 43 43 43 43 43 43 43 42 43 44 44 44 45 44 44 44 44 43 43
7 10 10 11 12 13 14 17 19 21 23 25 25 26 26 27 29 32 34 37 40 42 43 43 44 44 44 44 44 44 43 43 43 44 44 45 44 44 44 43 42 42 42 41
8 9 11 11 12 13 15 18 19 21 24 25 26 26 26 28 30 33 36 38 41 43 43 44 44 44 44 44 44 44 44 44 44 45 44 44 44 44 43 41 40 40 40 40
10 11 12 13 14 15 17 18 20 23 24 25 26 27 28 30 32 35 37 40 42 43 44 44 44 44 44 44 44 44 44 44 45 44 43 43 43 43 41 39 38 38 37 37
12 12 13 12 13 16 18 20 21 23 24 26 27 28 30 31 33 36 38 40 42 44 44 44 43 43 44 44 44 44 44 44 44 43 43 42 42 41 38 37 36 35 35 34
13 14 15 16 18 19 21 22 22 23 25 26 27 28 30 32 34 37 39 41 43 43 43 43 43 44 44 44 44 44 44 44 43 43 42 41 41 39 37 36 35 34 33 32
18 19 20 20 22 22 22 22 23 24 25 26 27 29 31 33 35 37 39 41 42 42 43 43 43 44 44 44 44 44 43 43 43 43 41 40 39 38 36 35 34 33 32 31
21 22 22 22 23 23 22 22 22 24 25 27 28 30 32 33 35 38 39 40 41 42 42 43 44 44 44 44 44 43 43 43 43 42 41 40 38 37 36 35 34 32 30 28
25 24 24 23 23 22 22 22 23 24 25 27 29 31 33 34 36 38 39 40 41 41 42 43 44 45 45 45 44 43 43 42 42 41 40 40 38 37 36 35 33 31 29 26
26 25 24 23 23 23 24 24 25 26 27 29 30 32 34 36 37 38 39 40 40 41 42 43 44 45 45 45 44 43 43 42 41 40 40 39 38 37 36 34 33 30 27 25
26 25 24 24 25 25 26 27 28 29 30 31 32 34 35 37 37 38 39 39 40 41 42 44 45 45 45 45 44 43 42 41 40 39 39 38 37 36 36 34 31 29 27 24
26 26 26 26 27 27 28 29 30 31 32 33 34 34 36 38 38 38 39 39 40 41 42 44 46 46 45 44 44 42 41 40 39 38 37 37 36 35 35 33 30 28 25 22
26 27 27 28 28 29 30 31 32 32 33 34 34 36 37 38 38 39 39 40 41 42 43 44 46 45 44 44 43 42 40 39 38 37 36 36 35 34 33 31 29 27 24 22
27 28 28 29 30 30 31 32 33 34 34 35 35 37 39 39 40 40 41 42 42 43 44 45 46 45 44 43 42 41 39 38 37 35 35 35 35 33 32 30 28 26 24 21
28 29 29 30 31 31 32 34 35 36 36 36 37 39 40 40 42 43 44 45 45 44 44 45 45 44 44 42 41 40 38 36 35 34 33 33 33 31 30 28 26 25 23 20
29 30 31 32 33 34 36 36 37 38 38 38 39 40 41 43 44 45 46 46 46 45 45 45 44 43 42 41 40 39 37 35 33 32 31 31 31 29 28 27 25 25 22 20
31 33 34 35 36 38 39 39 39 40 40 41 41 42 42 43 45 47 47 47 46 46 46 45 44 43 41 40 39 37 35 33 31 30 30 30 28 27 26 25 25 23 20 19
34 36 38 39 39 41 42 41 41 43 43 43 43 44 45 46 46 47 48 48 47 47 46 45 43 41 40 38 36 35 33 31 30 28 28 27 27 25 24 24 24 22 20 17
39 40 41 42 43 44 44 44 45 46 46 46 46 47 48 48 48 48 48 48 48 46 44 43 40 39 38 36 35 33 31 30 28 26 25 25 24 23 23 22 22 21 19 17
42 42 43 44 45 46 47 48 48 48 49 50 50 50 50 50 50 49 48 47 45 44 42 40 38 37 36 34 32 31 29 27 26 24 23 22 22 21 21 21 21 19 18 17
43 44 45 46 47 48 49 50 52 52 53 53 53 53 52 51 50 49 47 46 44 43 41 39 37 35 33 32 30 29 27 25 23 22 21 20 19 19 19 19 19 18 17 16
46 47 48 49 51 52 53 54 55 55 55 55 54 53 52 51 50 48 45 44 43 41 38 36 35 33 31 30 28 27 25 23 21 20 19 18 17 17 17 17 17 17 17 16
50 51 52 53 54 55 55 55 56 56 56 55 53 52 50 49 47 45 43 41 39 37 36 34 33 31 29 28 26 25 23 21 19 18 17 16 15 15 15 15 15 15 15 15
54 54 54 55 56 56 56 56 55 54 53 52 50 49 47 46 44 42 40 38 36 34 33 31 30 28 27 26 24 23 21 20 18 16 15 13 12 12 12 13 13 13 14 13
58 58 57 57 57 56 56 55 53 52 50 49 47 46 44 42 40 38 37 35 33 31 30 29 27 26 25 24 22 21 20 18 16 15 13 11 10 10 10 10 10 11 11 12
60 60 59 58 57 55 54 52 51 50 48 46 44 42 40 38 37 36 35 33 30 28 27 25 24 24 23 22 21 19 18 16 15 13 11 9 8 7 7 8 8 8 9 9
Wind_Direction
302 303 306 308 313 317 319 325 332 337 339 339 338 336 334 332 330 329 328 327 326 326 327 328 327 327 326 325 323 322 321 319 317 316 314 312 310 308 305 302 297 293 290 287
296 298 302 304 306 311 316 322 328 332 334 333 330 330 330 329 327 326 325 326 327 328 328 329 328 327 327 326 326 325 323 322 320 318 317 315 313 311 308 304 300 296 293 290
297 299 303 302 302 306 315 321 324 326 327 325 324 325 326 324 324 325 325 326 327 328 329 329 329 329 329 329 328 327 326 324 323 321 319 318 316 314 311 307 303 299 296 293
311 307 305 305 306 309 311 318 322 322 321 321 321 322 323 323 324 325 326 326 328 329 330 330 330 330 331 330 330 329 327 326 325 324 322 321 320 318 315 311 307 303 300 297
316 316 316 317 320 318 315 318 320 320 320 320 321 322 324 325 325 325 326 327 329 330 331 331 331 332 332 332 331 330 329 328 327 327 325 324 323 321 318 315 312 309 305 302
318 320 323 324 316 314 315 318 318 319 320 321 322 323 323 324 324 325 326 328 329 330 331 332 333 333 333 333 333 332 331 330 330 330 328 327 326 325 323 320 317 314 310 307
323 322 322 322 321 322 322 321 320 320 321 321 322 322 322 323 324 326 327 328 330 331 332 333 334 334 334 334 334 333 333 333 332 332 331 331 330 330 327 325 322 319 316 312
318 318 319 319 321 322 322 321 321 320 320 320 320 321 322 324 325 326 328 329 330 331 332 334 335 335 336 336 335 335 335 335 334 334 334 333 333 333 331 329 326 323 320 317
306 309 313 316 317 318 318 318 317 318 318 318 320 321 322 323 324 326 328 329 331 332 334 335 336 336 337 337 337 336 336 337 337 336 336 336 336 335 334 333 331 329 326 323
298 305 310 312 312 312 312 312 313 315 317 318 320 321 322 323 325 327 328 330 331 333 335 336 337 337 337 338 337 337 338 338 338 338 338 338 337 336 336 336 335 333 330 328
295 303 306 308 308 309 310 312 314 316 317 319 320 321 321 322 324 327 328 330 332 333 334 336 337 338 338 338 338 338 338 339 340 340 341 340 340 339 339 338 337 336 335 333
294 299 301 304 305 307 309 311 313 315 317 319 320 319 320 321 324 327 329 330 332 334 335 336 337 337 338 339 339 339 339 340 341 341 342 343 343 343 343 342 341 341 340 340
293 297 300 302 304 305 307 309 310 312 314 316 317 317 318 320 323 326 328 330 332 333 334 335 335 336 337 338 339 339 340 340 342 343 344 345 345 346 347 347 346 345 346 347
290 294 296 299 300 301 302 305 306 308 311 312 315 317 318 319 321 323 325 328 330 331 333 333 335 335 335 336 338 339 339 340 341 343 345 346 348 348 349 351 351 351 353 353
287 290 292 294 295 297 299 302 304 308 310 311 313 314 316 318 320 322 324 326 328 330 331 332 333 334 334 335 337 338 339 340 341 343 345 347 349 350 351 353 355 357 358 0
287 289 290 292 294 298 300 303 306 308 310 310 310 311 313 317 318 319 321 323 325 327 328 329 331 332 333 334 335 337 338 340 341 343 346 348 350 352 354 357 360 1 4 7
286 288 290 292 295 298 301 303 304 306 307 308 308 309 311 313 315 316 318 320 322 324 325 326 328 330 331 332 334 336 337 339 341 343 346 348 351 354 357 359 2 4 7 11
284 286 288 291 293 296 299 301 302 303 304 305 307 307 309 311 312 313 315 317 319 321 322 323 325 326 327 330 332 335 336 338 340 342 345 348 351 355 358 1 4 5 7 10
283 283 286 289 291 292 294 297 299 301 302 302 303 305 307 309 310 311 312 313 315 318 319 320 322 323 325 328 330 333 334 336 339 341 344 348 352 355 359 2 4 7 10 11
279 281 283 286 288 290 292 294 296 297 299 300 300 302 304 306 308 308 309 310 312 314 316 318 319 321 323 326 328 330 331 334 337 340 344 347 351 355 359 2 4 7 10 12
280 282 283 285 286 287 289 291 293 294 295 296 297 299 301 303 304 306 306 307 309 311 313 315 317 319 321 324 325 327 329 331 335 339 342 346 350 355 358 2 4 6 9 12
281 282 282 282 283 284 286 288 289 290 292 293 295 296 298 299 301 302 303 304 305 307 309 311 313 315 318 321 322 323 326 329 332 336 340 344 348 352 357 1 5 9 11 13
281 281 281 281 281 282 284 285 287 288 290 291 293 294 295 297 298 299 299 300 301 303 305 306 308 311 314 317 318 319 323 326 329 334 338 342 347 352 357 2 7 11 14 16
279 279 280 280 281 282 283 285 286 288 289 291 292 293 294 295 295 295 296 296 298 299 300 302 304 306 310 313 314 315 318 321 325 329 335 339 344 350 356 1 6 12 18 23
280 280 280 281 282 283 284 285 287 288 289 290 291 291 291 291 292 292 291 293 294 295 296 297 298 301 305 309 310 311 314 316 318 323 328 333 341 349 357 3 9 16 22 27
281 281 281 282 283 284 285 286 287 287 288 288 289 288 288 288 287 286 286 288 289 289 289 291 293 297 300 302 304 306 309 312 313 315 320 325 334 345 356 6 13 20 28 35
282 283 283 284 284 285 286 286 286 287 287 287 286 286 285 284 282 282 282 282 283 283 284 285 289 292 295 298 300 300 302 305 307 307 308 313 321 334 349 3 12 20 29 36
Height
5857 5856 5855 5853 5852 5850 5849 5847 5845 5842 5839 5837 5834 5832 5829 5825 5821 5817 5813 5808 5803 5796 5790 5782 5774 5767 5759 5751 5743 5736 5728 5720 5713 5706 5698 5691 5684 5677 5670 5663 5657 5652 5647 5643
5855 5854 5853 5851 5850 5848 5846 5844 5842 5840 5837 5835 5832 5829 5825 5821 5817 5813 5808 5803 5797 5790 5783 5775 5767 5759 5751 5743 5735 5727 5719 5711 5703 5696 5688 5680 5672 5664 5657 5650 5643 5637 5632 5627
5852 5851 5850 5849 5848 5846 5844 5842 5840 5838 5836 5832 5828 5825 5822 5818 5814 5809 5803 5797 5791 5783 5776 5768 5759 5751 5743 5735 5726 5718 5710 5702 5694 5686 5677 5669 5660 5652 5644 5636 5629 5623 5617 5612
5849 5849 5848 5848 5844 5843 5841 5839 5837 5835 5831 5828 5824 5822 5818 5813 5809 5803 5797 5791 5784 5776 5768 5760 5752 5744 5735 5727 5718 5710 5701 5693 5685 5676 5667 5659 5650 5641 5632 5624 5617 5611 5604 5599
5846 5845 5844 5843 5841 5839 5838 5836 5834 5830 5827 5823 5819 5816 5812 5808 5803 5797 5791 5784 5777 5769 5761 5753 5745 5736 5728 5719 5711 5702 5693 5685 5676 5667 5658 5649 5640 5631 5622 5614 5606 5599 5593 5586
5843 5842 5841 5842 5839 5836 5835 5832 5829 5826 5822 5818 5815 5811 5807 5802 5797 5791 5785 5778 5770 5763 5755 5747 5738 5730 5721 5712 5703 5695 5686 5677 5668 5658 5649 5640 5631 5621 5612 5604 5597 5589 5582 5576
5840 5838 5837 5836 5834 5832 5830 5828 5824 5821 5817 5813 5810 5806 5802 5797 5791 5785 5779 5772 5764 5756 5748 5740 5732 5723 5714 5705 5696 5687 5678 5669 5660 5650 5641 5632 5623 5613 5604 5596 5588 5581 5573 5566
5835 5834 5835 5831 5829 5827 5825 5822 5819 5815 5812 5808 5805 5801 5796 5791 5785 5779 5773 5766 5758 5750 5742 5733 5725 5716 5708 5699 5690 5680 5671 5662 5652 5643 5633 5624 5615 5606 5597 5589 5580 5572 5565 5558
5832 5832 5829 5827 5824 5823 5820 5817 5814 5811 5807 5803 5799 5795 5790 5785 5779 5773 5766 5759 5752 5744 5735 5727 5719 5710 5701 5692 5683 5674 5664 5655 5645 5636 5626 5617 5609 5600 5591 5582 5573 5565 5558 5551
5826 5825 5824 5822 5820 5817 5815 5812 5809 5806 5802 5798 5794 5789 5784 5779 5773 5767 5760 5752 5745 5737 5729 5721 5713 5704 5695 5686 5677 5667 5658 5649 5640 5630 5621 5612 5603 5594 5585 5576 5568 5559 5552 5545
5821 5820 5818 5816 5814 5811 5809 5806 5803 5799 5796 5792 5788 5783 5777 5772 5766 5760 5753 5746 5739 5731 5723 5715 5707 5698 5689 5680 5671 5662 5653 5643 5634 5625 5616 5607 5598 5588 5580 5571 5563 5555 5548 5541
5815 5814 5812 5810 5807 5804 5801 5798 5795 5792 5789 5785 5781 5776 5771 5765 5759 5753 5746 5740 5732 5725 5717 5709 5701 5692 5683 5674 5666 5657 5648 5639 5630 5620 5611 5602 5594 5584 5575 5567 5559 5551 5544 5538
5808 5806 5804 5802 5800 5797 5794 5791 5788 5785 5782 5778 5774 5769 5763 5758 5752 5746 5740 5733 5726 5719 5712 5703 5695 5687 5678 5669 5660 5652 5643 5634 5626 5617 5608 5599 5590 5581 5573 5564 5556 5549 5542 5536
5801 5799 5797 5795 5792 5790 5787 5784 5782 5779 5775 5771 5766 5761 5756 5750 5745 5739 5732 5726 5719 5713 5705 5697 5689 5681 5672 5664 5656 5647 5638 5630 5622 5613 5605 5597 5588 5579 5571 5563 5555 5548 5542 5536
5794 5792 5790 5788 5785 5783 5780 5777 5774 5771 5767 5763 5758 5753 5748 5742 5737 5731 5725 5718 5712 5705 5698 5691 5683 5675 5667 5659 5651 5643 5634 5626 5618 5610 5602 5594 5586 5578 5570 5562 5555 5548 5542 5536
5786 5784 5782 5779 5777 5775 5772 5769 5766 5762 5758 5754 5750 5744 5739 5734 5729 5723 5717 5711 5705 5699 5692 5685 5678 5670 5662 5654 5646 5638 5631 5623 5615 5608 5600 5592 5584 5577 5569 5562 5555 5548 5542 5537
5777 5775 5773 5770 5768 5766 5763 5760 5757 5753 5749 5745 5740 5735 5730 5725 5720 5714 5709 5703 5697 5691 5685 5678 5671 5664 5657 5649 5642 5635 5627 5620 5612 5606 5598 5591 5584 5576 5569 5562 5556 5550 5544 5539
5767 5765 5763 5761 5759 5756 5754 5751 5748 5744 5740 5736 5731 5726 5721 5717 5712 5706 5701 5695 5689 5684 5678 5671 5665 5658 5651 5644 5637 5631 5624 5617 5610 5603 5597 5590 5583 5576 5569 5563 5557 5551 5545 5541
5756 5755 5753 5751 5748 5746 5743 5740 5737 5733 5730 5725 5721 5717 5712 5708 5703 5697 5691 5686 5681 5675 5670 5664 5658 5652 5645 5639 5633 5626 5620 5614 5607 5601 5595 5589 5582 5576 5570 5564 5558 5552 5547 5542
5746 5744 5742 5740 5737 5735 5732 5729 5726 5722 5719 5714 5710 5706 5702 5697 5692 5687 5682 5677 5672 5667 5661 5656 5651 5645 5640 5634 5628 5622 5616 5611 5605 5599 5593 5588 5582 5576 5571 5565 5559 5554 5549 5544
5735 5733 5731 5728 5725 5722 5719 5716 5713 5710 5706 5702 5698 5694 5690 5686 5682 5677 5672 5667 5662 5657 5653 5648 5643 5638 5633 5628 5623 5618 5612 5607 5602 5597 5592 5587 5582 5576 5571 5566 5561 5556 5551 5546
5722 5720 5718 5715 5712 5709 5706 5703 5700 5696 5693 5689 5686 5682 5678 5674 5670 5665 5661 5657 5653 5648 5644 5640 5635 5631 5627 5622 5618 5613 5608 5604 5599 5595 5590 5586 5581 5576 5572 5567 5562 5557 5553 5548
5708 5706 5703 5700 5697 5694 5692 5688 5685 5682 5678 5675 5672 5669 5665 5661 5657 5653 5650 5646 5642 5638 5635 5631 5628 5624 5620 5616 5612 5608 5604 5600 5596 5592 5588 5584 5580 5576 5572 5568 5563 5559 5555 5551
5692 5689 5687 5684 5681 5678 5675 5673 5669 5666 5663 5660 5657 5654 5650 5647 5644 5641 5637 5634 5631 5628 5625 5623 5620 5617 5614 5610 5607 5603 5600 5597 5593 5590 5586 5583 5579 5576 5572 5568 5564 5560 5557 5553
5674 5671 5669 5666 5663 5660 5658 5656 5653 5650 5647 5645 5642 5639 5636 5633 5630 5628 5625 5622 5620 5618 5615 5613 5612 5609 5607 5604 5601 5598 5595 5593 5590 5587 5584 5581 5578 5575 5572 5569 5565 5562 5559 5556
5654 5652 5650 5647 5645 5643 5641 5639 5636 5634 5631 5629 5627 5624 5621 5619 5617 5614 5613 5611 5609 5607 5605 5604 5603 5601 5599 5597 5595 5593 5591 5588 5586 5584 5582 5579 5577 5575 5572 5569 5566 5564 5561 5559
5633 5632 5630 5628 5626 5624 5623 5621 5619 5617 5615 5613 5611 5610 5608 5606 5603 5602 5601 5599 5598 5597 5596 5595 5594 5593 5592 5591 5589 5587 5586 5584 5582 5580 5579 5577 5575 5574 5572 5569 5567 5565 5563 5561